FW6720 Weather Reports


Display with metric or nautical units.
time (UTC)temp
F
wind
direction
speed
MPH
gust
MPH
rain 1hr
in
rain 24hr
in
rain mn
in
humidity
%
barometer
mb
20260831063803 53 346 0.0 0.0 0.00 0.00 0.00 84 1017.9
20260831063258 53 346 0.0 0.0 0.00 0.00 0.00 84 1017.7
20260831062757 53 346 0.0 0.0 0.00 0.00 0.00 83 1017.9
20260831062252 53 346 0.0 0.0 0.00 0.00 0.00 83 1018.0
20260831061751 53 346 0.0 0.0 0.00 0.00 0.00 83 1017.9
20260831061245 53 346 0.0 0.0 0.00 0.00 0.00 83 1018.0
20260831060742 53 346 0.0 0.0 0.00 0.00 0.00 83 1018.1
20260831060242 54 346 0.0 0.0 0.00 0.00 0.00 83 1018.2
20260831055741 54 346 0.0 0.0 0.00 0.00 0.00 83 1018.1
20260831055241 54 346 0.0 0.0 0.00 0.00 0.00 82 1018.2
20260831054737 54 346 0.0 0.0 0.00 0.00 0.00 82 1018.2
20260831054232 54 346 0.0 0.0 0.00 0.00 0.00 82 1018.3
20260831053730 55 346 0.0 0.0 0.00 0.00 0.00 82 1018.5
20260831053229 55 346 0.0 0.0 0.00 0.00 0.00 81 1018.4
20260831052724 55 346 0.0 0.0 0.00 0.00 0.00 81 1018.4
20260831052223 55 346 0.0 0.0 0.00 0.00 0.00 81 1018.6
20260831051721 55 346 0.0 0.0 0.00 0.00 0.00 81 1018.5
20260831051220 55 346 0.0 0.0 0.00 0.00 0.00 80 1018.7
20260831050715 56 346 0.0 0.0 0.00 0.00 0.00 80 1018.7
20260831050214 56 346 0.0 0.0 0.00 0.00 0.00 80 1018.6
20260831045708 56 346 0.0 0.0 0.00 0.00 0.00 79 1018.7
20260831045203 56 346 0.0 0.0 0.00 0.00 0.00 79 1018.9
20260831044658 56 346 0.0 0.0 0.00 0.00 0.00 79 1018.6
20260831044153 57 346 0.0 0.0 0.00 0.00 0.00 78 1018.9
20260831043649 57 346 0.0 0.0 0.00 0.00 0.00 78 1019.0
20260831043144 57 346 0.0 0.0 0.00 0.00 0.00 78 1018.8
20260831042643 57 346 0.0 0.0 0.00 0.00 0.00 78 1018.7
20260831042138 57 346 0.0 0.0 0.00 0.00 0.00 77 1018.7
20260831041638 57 346 0.0 0.0 0.00 0.00 0.00 77 1018.8
20260831041133 58 346 0.0 0.0 0.00 0.00 0.00 77 1018.8
20260831040628 58 346 0.0 0.0 0.00 0.00 0.00 76 1018.7
20260831040127 58 346 0.0 0.0 0.00 0.00 0.00 76 1018.7
20260831035626 58 346 0.0 0.0 0.00 0.00 0.00 75 1018.8
20260831035120 59 346 0.0 0.0 0.00 0.00 0.00 75 1018.7
20260831034619 59 346 0.0 0.0 0.00 0.00 0.00 75 1018.8
20260831034115 59 346 0.0 0.0 0.00 0.00 0.00 74 1018.6
20260831033610 59 346 0.0 0.0 0.00 0.00 0.00 73 1018.5
20260831033105 60 346 0.0 0.0 0.00 0.00 0.00 73 1018.6
20260831032605 60 346 0.0 0.0 0.00 0.00 0.00 73 1018.7
20260831032101 60 346 0.0 0.0 0.00 0.00 0.00 72 1018.7
20260831031601 61 346 0.0 0.0 0.00 0.00 0.00 71 1018.6
20260831031059 61 346 0.0 0.0 0.00 0.00 0.00 70 1018.8
20260831030559 61 346 0.0 0.0 0.00 0.00 0.00 70 1018.8
20260831030058 62 346 0.0 0.0 0.00 0.00 0.00 69 1018.8
20260831025556 62 346 0.0 0.0 0.00 0.00 0.00 68 1018.5
20260831025052 63 346 0.0 0.0 0.00 0.00 0.00 68 1018.7
20260831024548 63 346 0.0 0.0 0.00 0.00 0.00 67 1018.8
20260831024046 64 346 0.0 0.0 0.00 0.00 0.00 66 1019.1
20260831023545 64 346 0.0 0.0 0.00 0.00 0.00 65 1018.8
20260831023039 64 345 0.0 0.0 0.00 0.00 0.00 64 1019.0
20260831022539 65 345 0.0 0.0 0.00 0.00 0.00 64 1019.0
20260831022035 65 345 0.0 0.0 0.00 0.00 0.00 62 1018.8
20260831021533 65 345 0.0 0.0 0.00 0.00 0.00 61 1018.9
20260831021029 66 345 0.0 0.0 0.00 0.00 0.00 61 1019.1
20260831020524 66 345 0.0 0.0 0.00 0.00 0.00 61 1018.8
20260831020019 66 345 0.0 0.0 0.00 0.00 0.00 60 1019.0
20260831015515 67 345 0.0 0.0 0.00 0.00 0.00 60 1019.0
20260831015010 67 345 0.0 0.0 0.00 0.00 0.00 59 1019.0
20260831014504 68 345 0.0 0.0 0.00 0.00 0.00 59 1018.9
20260831014000 68 345 0.0 0.0 0.00 0.00 0.00 58 1019.0
20260831013456 68 345 0.0 0.0 0.00 0.00 0.00 58 1018.9
20260831012955 68 345 0.0 0.0 0.00 0.00 0.00 58 1019.2
20260831012451 69 345 0.0 0.0 0.00 0.00 0.00 57 1019.1
20260831011950 69 345 0.0 0.0 0.00 0.00 0.00 56 1019.1
20260831011445 69 345 0.0 0.0 0.00 0.00 0.00 57 1019.2
20260831010941 69 345 0.0 0.0 0.00 0.00 0.00 56 1019.1
20260831010441 70 345 0.0 0.0 0.00 0.00 0.00 55 1019.1
20260831005937 70 345 0.0 0.0 0.00 0.00 0.00 55 1019.2
20260831005432 70 345 0.0 0.0 0.00 0.00 0.00 54 1019.3
20260831004932 70 345 0.0 0.0 0.00 0.00 0.00 54 1019.2
20260831004429 71 345 0.0 0.0 0.00 0.00 0.00 54 1019.2
20260831003924 71 345 0.0 0.0 0.00 0.00 0.00 52 1019.3
20260831003420 71 345 0.0 0.0 0.00 0.00 0.00 55 1019.4
20260831002919 71 345 0.0 0.0 0.00 0.00 0.00 52 1019.2
20260831002418 71 345 0.0 0.0 0.00 0.00 0.00 52 1019.3
20260831001914 72 345 0.0 0.0 0.00 0.00 0.00 52 1019.5
20260831001409 72 345 0.0 0.0 0.00 0.00 0.00 52 1019.3
20260831000906 72 345 0.0 0.0 0.00 0.00 0.00 51 1019.3
20260831000403 72 345 0.0 0.0 0.00 0.00 0.00 51 1019.2
20260830235900 72 345 0.0 0.0 0.00 0.00 0.00 51 1019.2
20260830235354 72 345 0.0 0.0 0.00 0.00 0.00 50 1019.4
20260830234850 72 345 0.0 0.0 0.00 0.00 0.00 50 1019.3
20260830234345 72 345 0.0 0.0 0.00 0.00 0.00 50 1019.3
20260830233841 72 345 0.0 0.0 0.00 0.00 0.00 50 1019.3
20260830233337 72 345 0.0 0.0 0.00 0.00 0.00 50 1019.4
20260830232832 73 345 0.0 0.0 0.00 0.00 0.00 50 1019.6
20260830232328 73 345 0.0 0.0 0.00 0.00 0.00 48 1019.4
20260830231824 73 344 0.0 0.0 0.00 0.00 0.00 48 1019.4
20260830231319 74 344 3.0 3.0 0.00 0.00 0.00 47 1019.6
20260830230813 75 346 0.0 0.0 0.00 0.00 0.00 47 1019.7
20260830230308 75 346 0.0 0.0 0.00 0.00 0.00 46 1019.8
20260830225808 75 346 0.0 0.0 0.00 0.00 0.00 47 1019.9
20260830225305 75 346 0.0 0.0 0.00 0.00 0.00 46 1019.8
20260830224802 74 346 0.0 0.0 0.00 0.00 0.00 47 1019.9
20260830224257 74 346 0.0 0.0 0.00 0.00 0.00 48 1020.2
20260830223754 74 346 0.0 0.0 0.00 0.00 0.00 47 1020.0
20260830223250 75 348 0.0 0.0 0.00 0.00 0.00 46 1020.2
20260830222744 75 347 0.0 1.0 0.00 0.00 0.00 46 1020.2
20260830222239 75 347 0.0 0.0 0.00 0.00 0.00 46 1020.2
20260830221735 76 347 0.0 0.0 0.00 0.00 0.00 46 1020.2
20260830221232 76 62 0.0 0.0 0.00 0.00 0.00 46 1020.3
20260830220727 76 4 0.0 0.0 0.00 0.00 0.00 44 1020.3
20260830220225 76 2 0.0 0.0 0.00 0.00 0.00 46 1020.3
20260830215724 75 8 0.0 0.0 0.00 0.00 0.00 44 1020.5
20260830215219 74 8 0.0 0.0 0.00 0.00 0.00 46 1020.5
20260830214714 75 6 0.0 0.0 0.00 0.00 0.00 46 1020.5
20260830214209 76 5 0.0 0.0 0.00 0.00 0.00 44 1020.6
20260830213708 76 6 0.0 0.0 0.00 0.00 0.00 45 1020.8
20260830213203 75 6 0.0 0.0 0.00 0.00 0.00 45 1020.7
20260830212659 74 6 0.0 0.0 0.00 0.00 0.00 47 1020.9
20260830212154 73 5 0.0 0.0 0.00 0.00 0.00 47 1020.9
20260830211649 73 6 0.0 0.0 0.00 0.00 0.00 46 1021.0
20260830211148 74 0 0.0 0.0 0.00 0.00 0.00 47 1021.2
20260830210644 74 0 0.0 0.0 0.00 0.00 0.00 46 1021.1
20260830210143 74 0 0.0 0.0 0.00 0.00 0.00 46 1021.3
20260830205640 75 5 0.0 1.0 0.00 0.00 0.00 44 1021.0
20260830205136 74 9 0.0 0.0 0.00 0.00 0.00 45 1021.0
20260830204635 74 9 0.0 0.0 0.00 0.00 0.00 45 1021.1
20260830204134 74 42 0.0 1.0 0.00 0.00 0.00 47 1021.2
20260830203631 73 69 1.0 2.0 0.00 0.00 0.00 46 1021.2
20260830203130 72 10 0.0 0.0 0.00 0.00 0.00 45 1021.2
20260830202625 72 9 0.0 0.0 0.00 0.00 0.00 47 1021.4
20260830202120 73 9 0.0 0.0 0.00 0.00 0.00 48 1021.5
20260830201620 72 72 1.0 2.0 0.00 0.00 0.00 46 1021.4
20260830201115 71 64 0.0 0.0 0.00 0.00 0.00 49 1021.4
20260830200610 72 65 0.0 1.0 0.00 0.00 0.00 48 1021.5
20260830200109 73 65 0.0 1.0 0.00 0.00 0.00 44 1021.6
20260830195605 73 63 0.0 0.0 0.00 0.00 0.00 46 1021.9
20260830195102 73 63 0.0 0.0 0.00 0.00 0.00 46 1021.6
20260830194557 72 64 0.0 0.0 0.00 0.00 0.00 46 1021.7
20260830194051 72 63 0.0 0.0 0.00 0.00 0.00 48 1021.8
20260830193550 71 63 0.0 0.0 0.00 0.00 0.00 47 1021.8
20260830193046 72 62 0.0 0.0 0.00 0.00 0.00 49 1021.9
20260830192541 72 4 0.0 1.0 0.00 0.00 0.00 50 1021.9
20260830192041 72 4 2.0 2.0 0.00 0.00 0.00 46 1022.1
20260830191536 71 43 0.0 0.0 0.00 0.00 0.00 48 1022.2
20260830191032 70 44 0.0 0.0 0.00 0.00 0.00 50 1022.2
20260830190527 71 43 0.0 0.0 0.00 0.00 0.00 51 1022.4
20260830190022 70 45 0.0 0.0 0.00 0.00 0.00 48 1022.3
20260830185516 70 45 0.0 0.0 0.00 0.00 0.00 48 1022.4
20260830185012 70 57 2.0 2.0 0.00 0.00 0.00 48 1022.2
20260830184510 69 353 0.0 0.0 0.00 0.00 0.00 51 1022.2
20260830184006 69 352 1.0 2.0 0.00 0.00 0.00 51 1022.4
20260830183506 69 25 0.0 0.0 0.00 0.00 0.00 50 1022.3
20260830183001 70 66 0.0 0.0 0.00 0.00 0.00 50 1022.4
20260830182456 68 33 0.0 0.0 0.00 0.00 0.00 51 1022.4
20260830181947 70 40 0.0 1.0 0.00 0.00 0.00 52 1022.5
20260830181442 69 40 0.0 0.0 0.00 0.00 0.00 53 1022.6
20260830180936 68 41 0.0 0.0 0.00 0.00 0.00 56 1022.5
20260830180436 67 41 0.0 0.0 0.00 0.00 0.00 55 1022.5
20260830175935 66 334 0.0 0.0 0.00 0.00 0.00 59 1022.6
20260830175429 64 333 0.0 0.0 0.00 0.00 0.00 63 1022.2
20260830174924 64 332 0.0 0.0 0.00 0.00 0.00 62 1022.7
20260830174420 64 333 0.0 0.0 0.00 0.00 0.00 63 1022.5
20260830173915 65 331 0.0 0.0 0.00 0.00 0.00 62 1022.5
20260830173411 66 332 0.0 0.0 0.00 0.00 0.00 61 1022.4
20260830172906 66 332 0.0 0.0 0.00 0.00 0.00 58 1022.5
20260830172403 67 335 0.0 0.0 0.00 0.00 0.00 59 1022.2
20260830171858 67 109 0.0 0.0 0.00 0.00 0.00 57 1022.4
20260830171353 67 109 0.0 0.0 0.00 0.00 0.00 61 1022.3
20260830170848 66 51 0.0 0.0 0.00 0.00 0.00 62 1022.5
20260830170348 65 51 0.0 0.0 0.00 0.00 0.00 60 1022.5
20260830165846 64 50 0.0 0.0 0.00 0.00 0.00 66 1022.4
20260830165342 64 51 0.0 0.0 0.00 0.00 0.00 63 1022.7
20260830164838 63 51 0.0 0.0 0.00 0.00 0.00 67 1022.5
20260830164334 62 51 0.0 0.0 0.00 0.00 0.00 69 1022.6
20260830163831 62 15 0.0 0.0 0.00 0.00 0.00 68 1022.5
20260830163326 63 15 0.0 0.0 0.00 0.00 0.00 66 1022.5
20260830162820 62 16 0.0 0.0 0.00 0.00 0.00 67 1022.7
20260830162317 61 16 0.0 0.0 0.00 0.00 0.00 71 1022.7
20260830161817 59 15 0.0 0.0 0.00 0.00 0.00 73 1022.8
20260830161316 58 15 0.0 0.0 0.00 0.00 0.00 74 1022.7
20260830160812 57 15 0.0 0.0 0.00 0.00 0.00 77 1022.9
20260830160307 56 15 0.0 0.0 0.00 0.00 0.00 78 1022.9
20260830155803 55 14 0.0 0.0 0.00 0.00 0.00 78 1022.8
20260830155259 54 14 0.0 0.0 0.00 0.00 0.00 84 1023.1
20260830154759 53 13 0.0 0.0 0.00 0.00 0.00 87 1023.1
20260830154254 52 13 0.0 0.0 0.00 0.00 0.00 88 1023.3
20260830153751 52 13 0.0 0.0 0.00 0.00 0.00 88 1023.1
20260830153246 51 13 0.0 0.0 0.00 0.00 0.00 88 1023.1
20260830152744 51 13 0.0 0.0 0.00 0.00 0.00 88 1023.4
20260830152239 50 13 0.0 0.0 0.00 0.00 0.00 90 1023.1
20260830151734 50 13 0.0 0.0 0.00 0.00 0.00 90 1023.3
20260830151233 49 13 0.0 0.0 0.00 0.00 0.00 92 1023.4
20260830150729 48 13 0.0 0.0 0.00 0.00 0.00 92 1023.4
20260830150228 48 13 0.0 0.0 0.00 0.00 0.00 92 1023.3
20260830145723 47 13 0.0 0.0 0.00 0.00 0.00 94 1023.4
20260830145218 46 13 0.0 0.0 0.00 0.00 0.00 94 1023.1
20260830144713 46 13 0.0 0.0 0.00 0.00 0.00 94 1023.3
20260830144209 46 13 0.0 0.0 0.00 0.00 0.00 94 1023.1
20260830143705 46 13 0.0 0.0 0.00 0.00 0.00 95 1023.1
20260830143203 45 13 0.0 0.0 0.00 0.00 0.00 95 1023.0
20260830142658 45 13 0.0 0.0 0.00 0.00 0.00 95 1023.0
20260830142153 45 13 0.0 0.0 0.00 0.00 0.00 95 1023.1
20260830141648 44 13 0.0 0.0 0.00 0.00 0.00 95 1023.3
20260830141143 44 13 0.0 0.0 0.00 0.00 0.00 95 1023.1
20260830140638 44 13 0.0 0.0 0.00 0.00 0.00 95 1023.4
20260830140138 44 13 0.0 0.0 0.00 0.00 0.00 95 1023.4
20260830135633 44 13 0.0 0.0 0.00 0.00 0.00 95 1023.3
20260830135128 43 13 0.0 0.0 0.00 0.00 0.00 95 1023.3
20260830134624 43 13 0.0 0.0 0.00 0.00 0.00 95 1023.1
20260830134119 43 13 0.0 0.0 0.00 0.00 0.00 95 1023.3
20260830133615 43 14 0.0 0.0 0.00 0.00 0.00 95 1023.1
20260830133110 43 14 0.0 0.0 0.00 0.00 0.00 94 1023.1
20260830132606 43 15 0.0 0.0 0.00 0.00 0.00 94 1023.0
20260830132102 43 15 0.0 0.0 0.00 0.00 0.00 94 1023.1
20260830131600 43 15 0.0 0.0 0.00 0.00 0.00 94 1023.1
20260830131055 43 15 0.0 0.0 0.00 0.00 0.00 94 1023.1
20260830130550 44 15 0.0 0.0 0.00 0.00 0.00 94 1023.0
20260830130046 44 15 0.0 0.0 0.00 0.00 0.00 94 1023.1
20260830125545 44 15 0.0 0.0 0.00 0.00 0.00 94 1023.0
20260830125044 44 15 0.0 0.0 0.00 0.00 0.00 93 1022.9
20260830124543 44 15 0.0 0.0 0.00 0.00 0.00 93 1023.0
20260830124039 44 15 0.0 0.0 0.00 0.00 0.00 93 1022.9
20260830123536 44 15 0.0 0.0 0.00 0.00 0.00 93 1022.7
20260830123031 44 15 0.0 0.0 0.00 0.00 0.00 93 1022.8
20260830122528 44 15 0.0 0.0 0.00 0.00 0.00 93 1022.8
20260830122024 44 15 0.0 0.0 0.00 0.00 0.00 93 1022.8
20260830121520 45 15 0.0 0.0 0.00 0.00 0.00 93 1022.7
20260830121019 45 15 0.0 0.0 0.00 0.00 0.00 93 1022.6
20260830120514 45 15 0.0 0.0 0.00 0.00 0.00 93 1022.6
20260830120011 45 15 0.0 0.0 0.00 0.00 0.00 93 1022.8
20260830115507 45 15 0.0 0.0 0.00 0.00 0.00 93 1022.7
20260830115002 45 15 0.0 0.0 0.00 0.00 0.00 93 1022.6
20260830114459 45 15 0.0 0.0 0.00 0.00 0.00 92 1022.5
20260830113958 45 15 0.0 0.0 0.00 0.00 0.00 92 1022.6
20260830113453 45 15 0.0 0.0 0.00 0.00 0.00 92 1022.7
20260830112948 45 15 0.0 0.0 0.00 0.00 0.00 92 1022.9
20260830112444 45 15 0.0 0.0 0.00 0.00 0.00 92 1022.6
20260830111940 45 15 0.0 0.0 0.00 0.00 0.00 91 1022.6
20260830111436 45 15 0.0 0.0 0.00 0.00 0.00 91 1022.7
20260830110931 45 15 0.0 0.0 0.00 0.00 0.00 91 1022.7
20260830110426 45 15 0.0 0.0 0.00 0.00 0.00 91 1022.6
20260830105926 45 15 0.0 0.0 0.00 0.00 0.00 91 1022.7
20260830105422 45 15 0.0 0.0 0.00 0.00 0.00 91 1022.6
20260830104918 45 15 0.0 0.0 0.00 0.00 0.00 90 1022.6
20260830104414 45 15 0.0 0.0 0.00 0.00 0.00 90 1022.5
20260830103914 45 15 0.0 0.0 0.00 0.00 0.00 90 1022.7
20260830103410 45 15 0.0 0.0 0.00 0.00 0.00 90 1022.9
20260830102907 45 15 0.0 0.0 0.00 0.00 0.00 90 1022.6
20260830102403 45 15 0.0 0.0 0.00 0.00 0.00 90 1022.7
20260830101900 46 15 0.0 0.0 0.00 0.00 0.00 90 1022.7
20260830101354 46 15 0.0 0.0 0.00 0.00 0.00 90 1022.7
20260830100854 46 15 0.0 0.0 0.00 0.00 0.00 90 1022.5
20260830100353 46 15 0.0 0.0 0.00 0.00 0.00 89 1022.7
20260830095852 46 15 0.0 0.0 0.00 0.00 0.00 89 1022.6
20260830095348 46 15 0.0 0.0 0.00 0.00 0.00 89 1022.5
20260830094844 46 15 0.0 0.0 0.00 0.00 0.00 89 1022.6
20260830094340 46 15 0.0 0.0 0.00 0.00 0.00 89 1022.5
20260830093836 46 15 0.0 0.0 0.00 0.00 0.00 89 1022.5
20260830093331 46 15 0.0 0.0 0.00 0.00 0.00 89 1022.8
20260830092826 46 15 0.0 0.0 0.00 0.00 0.00 89 1022.7
20260830092322 46 15 0.0 0.0 0.00 0.00 0.00 88 1022.8
20260830091819 46 15 0.0 0.0 0.00 0.00 0.00 88 1022.6
20260830091318 47 15 0.0 0.0 0.00 0.00 0.00 88 1022.7
20260830090817 47 15 0.0 0.0 0.00 0.00 0.00 88 1022.7
20260830090313 47 15 0.0 0.0 0.00 0.00 0.00 87 1022.9
20260830085812 47 15 0.0 0.0 0.00 0.00 0.00 87 1022.7
20260830085308 47 15 0.0 0.0 0.00 0.00 0.00 87 1022.7
20260830084803 47 15 0.0 0.0 0.00 0.00 0.00 87 1022.8
20260830084259 47 15 0.0 0.0 0.00 0.00 0.00 87 1023.0
20260830083753 47 15 0.0 0.0 0.00 0.00 0.00 87 1023.0
20260830083250 47 15 0.0 0.0 0.00 0.00 0.00 87 1022.9
20260830082749 47 15 0.0 0.0 0.00 0.00 0.00 87 1023.0
20260830082245 48 15 0.0 0.0 0.00 0.00 0.00 86 1022.8
20260830081739 48 15 0.0 0.0 0.00 0.00 0.00 86 1023.1
20260830081240 48 15 0.0 0.0 0.00 0.00 0.00 86 1022.9
20260830080734 48 15 0.0 0.0 0.00 0.00 0.00 86 1023.0
20260830080230 48 15 0.0 0.0 0.00 0.00 0.00 86 1022.9
20260830075729 48 15 0.0 0.0 0.00 0.00 0.00 86 1022.8
20260830075225 48 15 0.0 0.0 0.00 0.00 0.00 86 1023.0
20260830074720 48 15 0.0 0.0 0.00 0.00 0.00 86 1022.9
20260830074216 48 15 0.0 0.0 0.00 0.00 0.00 85 1023.1
20260830073712 48 15 0.0 0.0 0.00 0.00 0.00 85 1022.8
20260830073208 49 15 0.0 0.0 0.00 0.00 0.00 85 1022.8
20260830072707 49 15 0.0 0.0 0.00 0.00 0.00 85 1022.8
20260830072202 49 15 0.0 0.0 0.00 0.00 0.00 85 1022.8
20260830071657 49 15 0.0 0.0 0.00 0.00 0.00 85 1022.6
20260830071156 49 15 0.0 0.0 0.00 0.00 0.00 85 1022.8
20260830070650 49 15 0.0 0.0 0.00 0.00 0.00 85 1022.7
20260830070145 49 15 0.0 0.0 0.00 0.00 0.00 84 1022.9
20260830065644 49 15 0.0 0.0 0.00 0.02 0.02 84 1022.6
20260830065143 49 15 0.0 0.0 0.00 0.02 0.02 84 1022.9
20260830064637 50 15 0.0 0.0 0.00 0.02 0.02 84 1022.7
20260830064132 50 15 0.0 0.0 0.00 0.02 0.02 84 1022.6